(192) Nausikaa
ephemeris date magn radius delta ra dec elong phase
Today19 Apr 202511.42.917 AU1.933 AU14h21m-22°48'165.7°4.9°
Opposition28 Apr 202511.22.906 AU1.907 AU14h11m-22°17'171.5°2.9°
(192) Nausikaa - 2025-04-19
astro.vanbuitenen.nl


 
-1 year
-1 month
-1 day
Now
+1 day
+1 month
+1 year

The interactive orbit chart above shows the body's path through the solar system and its position at the given date. Green and blue lines are shown perpendicular to the ecliptic plane: Green if the path is above the ecliptic plane, blue if it is below. (Left-click and drag to rotate the view; Right-click and drag to move the view; Use scroll wheel to zoom in our out.)

The orbital elements of Nausikaa are:

            e (Eccentricity)                : 0.2453786
            a (Semimajor axis)              : 2.4031767
            i (Inclination)                 : 6.79567
            Ω (Longitude of ascending node) : 343.08235
            ω (Argument of perihelion)      : 30.58684
            M (Mean anomaly)                : 220.45739
            Epoch                           : 2025 May 05

            L (Longitude of perihelion)     : 13.49254
            B (Latitude of perihelion)      : 3.45192
            P (Orbital period in years)     : 3.73            
        

The light curve chart below shows the estimated development of the minor planet's magnitude.


The all-sky chart below shows the path of the minor planet over the same period as the light curve. The current position is marked yellow.





The following chart shows the path of the minor planet in the next few days. The field of view is optimized for (~10x50) binoculars and finderscopes. A more printer-friendly version of the same chart can be found below.




Ephemerides:
Date       Time       RA (2000)    DEC (2000)    delta   radius  elong  phase   PA    magn
2025-04-19 00:00 UT   14 21 13.6   -22 48 33     1.933    2.917  165.7    4.9   324   11.4 
2025-04-19 21:53 UT   14 20 18.9   -22 46 04     1.930    2.916  166.6    4.6   327   11.4 
2025-04-20 00:00 UT   14 20 13.6   -22 45 49     1.929    2.916  166.7    4.6   327   11.3 
2025-04-21 00:00 UT   14 19 13.0   -22 42 58     1.926    2.915  167.6    4.3   331   11.3 
2025-04-22 00:00 UT   14 18 12.1   -22 39 58     1.922    2.914  168.4    4.0   335   11.3 
2025-04-23 00:00 UT   14 17 10.7   -22 36 51     1.919    2.913  169.2    3.7   340   11.3 
2025-04-24 00:00 UT   14 16 09.1   -22 33 36     1.916    2.912  169.9    3.5   346   11.3 
2025-04-25 00:00 UT   14 15 07.3   -22 30 14     1.914    2.911  170.5    3.3   352   11.3 
2025-04-26 00:00 UT   14 14 05.2   -22 26 45     1.911    2.909  171.0    3.1   359   11.2 
2025-04-27 00:00 UT   14 13 03.1   -22 23 09     1.909    2.908  171.3    3.0     7   11.2 
2025-04-28 00:00 UT   14 12 01.0   -22 19 27     1.908    2.907  171.5    3.0    15   11.2 
2025-04-29 00:00 UT   14 10 58.9   -22 15 39     1.906    2.906  171.4    3.0    23   11.2 
2025-04-30 00:00 UT   14 09 56.9   -22 11 44     1.905    2.905  171.3    3.0    31   11.2 
2025-05-01 00:00 UT   14 08 55.0   -22 07 44     1.904    2.903  170.9    3.1    39   11.2 
2025-05-02 00:00 UT   14 07 53.4   -22 03 39     1.904    2.902  170.5    3.3    46   11.2 
2025-05-03 00:00 UT   14 06 52.1   -21 59 29     1.903    2.901  169.9    3.5    52   11.2 
2025-05-04 00:00 UT   14 05 51.2   -21 55 14     1.903    2.900  169.2    3.8    58   11.3 
2025-05-05 00:00 UT   14 04 50.7   -21 50 55     1.904    2.899  168.4    4.0    63   11.3 
2025-05-06 00:00 UT   14 03 50.7   -21 46 32     1.904    2.897  167.5    4.3    67   11.3 
2025-05-07 00:00 UT   14 02 51.3   -21 42 05     1.905    2.896  166.6    4.6    70   11.3 
2025-05-08 00:00 UT   14 01 52.4   -21 37 35     1.906    2.895  165.7    5.0    74   11.3 
2025-05-09 00:00 UT   14 00 54.2   -21 33 02     1.908    2.894  164.7    5.3    76   11.3 
2025-05-10 00:00 UT   13 59 56.7   -21 28 26     1.910    2.892  163.7    5.6    79   11.4 
2025-05-11 00:00 UT   13 59 00.0   -21 23 48     1.912    2.891  162.7    6.0    81   11.4 
2025-05-12 00:00 UT   13 58 04.1   -21 19 08     1.914    2.890  161.6    6.3    83   11.4 
2025-05-13 00:00 UT   13 57 09.1   -21 14 27     1.916    2.889  160.6    6.7    85   11.4 
2025-05-14 00:00 UT   13 56 15.0   -21 09 44     1.919    2.887  159.5    7.0    86   11.4 
2025-05-15 00:00 UT   13 55 21.8   -21 05 01     1.922    2.886  158.4    7.4    88   11.5 
2025-05-16 00:00 UT   13 54 29.7   -21 00 17     1.925    2.885  157.3    7.8    89   11.5 
2025-05-17 00:00 UT   13 53 38.5   -20 55 33     1.929    2.883  156.2    8.1    90   11.5 
2025-05-18 00:00 UT   13 52 48.5   -20 50 49     1.933    2.882  155.1    8.5    92   11.5 
2025-05-19 00:00 UT   13 51 59.6   -20 46 05     1.937    2.881  154.0    8.8    93   11.5 


    Terminology:
            
    delta:  distance between minor planet and earth in AU
    radius: distance between minor planet and sun in AU
    magn:   magnitude (brightness) estimate    
    ra:     right ascension in hours (24h = 360deg)
    dec:    declination in degrees
    elong:  elongation in degrees (angle sun-earth-minor planet)    
    phase:  phase angle in degrees (angle sun-minor planet-earth)        
    AU:     Astronomical Unit (mean distance between earth and sun: 149597870.7 km
    

Orbital elements provided by the MPC (Minor Planet Center).
Calculations by a modified version of AAPlus, a C# implementation of the AA+ project by PJ Naughter from the algorithms presented in the book "Astronomical Algorithms" by Jean Meeus.
NGC2000 dso catalog and star labels from VizieR as provided by the Strasbourg astronomical Data Center.
Tycho2 catalog from the ESO archive.